Time,TemperatureF,DewpointF,PressureIn,WindDirection,WindDirectionDegrees,WindSpeedMPH,WindSpeedGustMPH,Humidity,HourlyPrecipIn,Conditions,Clouds,dailyrainin,SolarRadiationWatts/m^2,SoftwareType,DateUTC
2013-10-10 00:02:00,48.0,48.0,-100.00,NE,39,1.0,5.0,100,0.00,,,0.01,0.000000,,2013-10-10 07:02:00,
2013-10-10 00:42:00,49.0,49.0,-100.00,ENE,72,0.0,5.0,100,0.00,,,0.01,0.000000,,2013-10-10 07:42:00,
2013-10-10 00:52:00,49.0,49.0,-100.00,ENE,72,0.0,5.0,100,0.00,,,0.01,0.000000,,2013-10-10 07:52:00,
2013-10-10 01:02:00,49.0,49.0,-100.00,ENE,72,0.0,5.0,100,0.00,,,0.01,0.000000,,2013-10-10 08:02:00,
2013-10-10 01:22:00,48.0,48.0,-100.00,SW,231,0.0,5.0,100,0.00,,,0.01,0.000000,,2013-10-10 08:22:00,
2013-10-10 01:32:00,48.0,48.0,-100.00,SW,231,0.0,5.0,100,0.00,,,0.01,0.000000,,2013-10-10 08:32:00,
2013-10-10 01:43:00,48.0,48.0,-100.00,SW,231,0.0,5.0,100,0.00,,,0.01,0.000000,,2013-10-10 08:43:00,
2013-10-10 01:52:00,48.0,48.0,-100.00,SW,231,0.0,5.0,100,0.00,,,0.01,0.000000,,2013-10-10 08:52:00,
2013-10-10 02:01:00,48.0,48.0,-100.00,SW,231,0.0,5.0,100,0.00,,,0.01,0.000000,,2013-10-10 09:01:00,
2013-10-10 02:43:00,47.0,47.0,-100.00,ESE,104,1.0,6.0,100,0.00,,,0.01,0.000000,,2013-10-10 09:43:00,
2013-10-10 02:53:00,47.0,47.0,-100.00,ESE,104,1.0,6.0,100,0.00,,,0.01,0.000000,,2013-10-10 09:53:00,
2013-10-10 03:03:00,47.0,47.0,-100.00,ESE,104,1.0,6.0,100,0.00,,,0.01,0.000000,,2013-10-10 10:03:00,
2013-10-10 03:43:00,48.0,48.0,-100.00,NE,53,1.0,6.0,100,0.00,,,0.01,0.000000,,2013-10-10 10:43:00,
2013-10-10 03:53:00,48.0,48.0,-100.00,NE,53,1.0,6.0,100,0.00,,,0.01,0.000000,,2013-10-10 10:53:00,
2013-10-10 04:02:00,48.0,48.0,-100.00,NE,53,1.0,6.0,100,0.00,,,0.01,0.000000,,2013-10-10 11:02:00,
2013-10-10 07:42:00,45.0,45.0,-100.00,ENE,70,0.0,0.0,100,-99.99,,,0.00,0.000000,,2013-10-10 14:42:00,
2013-10-10 07:52:00,45.0,45.0,-100.00,ENE,70,0.0,0.0,100,-99.99,,,0.00,0.000000,,2013-10-10 14:52:00,
2013-10-10 08:02:00,45.0,45.0,-100.00,ENE,70,0.0,0.0,100,-99.99,,,0.00,0.000000,,2013-10-10 15:02:00,
2013-10-10 08:43:00,45.0,45.0,-100.00,South,179,0.0,5.0,100,0.00,,,0.00,10.000000,,2013-10-10 15:43:00,
2013-10-10 08:54:00,45.0,45.0,-100.00,South,179,0.0,5.0,100,0.00,,,0.00,10.000000,,2013-10-10 15:54:00,
2013-10-10 09:03:00,45.0,45.0,-100.00,South,179,0.0,5.0,100,0.00,,,0.00,10.000000,,2013-10-10 16:03:00,
2013-10-10 09:42:00,48.0,48.0,-100.00,NE,37,0.0,0.0,100,0.00,,,0.00,56.000000,,2013-10-10 16:42:00,
2013-10-10 09:53:00,48.0,48.0,-100.00,NE,37,0.0,0.0,100,0.00,,,0.00,56.000000,,2013-10-10 16:53:00,
2013-10-10 10:02:00,48.0,48.0,-100.00,NE,37,0.0,0.0,100,0.00,,,0.00,56.000000,,2013-10-10 17:02:00,
2013-10-10 10:42:00,52.0,52.0,-100.00,NE,45,0.0,3.0,100,0.00,,,0.00,169.000000,,2013-10-10 17:42:00,
2013-10-10 10:52:00,52.0,52.0,-100.00,NE,45,0.0,3.0,100,0.00,,,0.00,169.000000,,2013-10-10 17:52:00,
2013-10-10 11:02:00,52.0,52.0,-100.00,NE,45,0.0,3.0,100,0.00,,,0.00,169.000000,,2013-10-10 18:02:00,
2013-10-10 11:52:00,62.0,55.0,-100.00,North,349,0.0,4.0,77,0.00,,,0.00,449.000000,,2013-10-10 18:52:00,
2013-10-10 12:01:00,62.0,55.0,-100.00,North,349,0.0,4.0,77,0.00,,,0.00,449.000000,,2013-10-10 19:01:00,
2013-10-10 12:42:00,60.0,51.0,-100.00,WSW,250,2.0,6.0,73,0.00,,,0.00,489.000000,,2013-10-10 19:42:00,
2013-10-10 12:53:00,60.0,51.0,-100.00,WSW,250,2.0,6.0,73,0.00,,,0.00,489.000000,,2013-10-10 19:53:00,
2013-10-10 13:02:00,60.0,51.0,-100.00,WSW,250,2.0,6.0,73,0.00,,,0.00,489.000000,,2013-10-10 20:02:00,
2013-10-10 13:42:00,63.0,53.0,-100.00,WNW,291,5.0,9.0,71,0.00,,,0.00,658.000000,,2013-10-10 20:42:00,
2013-10-10 13:52:00,63.0,53.0,-100.00,WNW,291,5.0,9.0,71,0.00,,,0.00,658.000000,,2013-10-10 20:52:00,
2013-10-10 14:03:00,63.0,53.0,-100.00,WNW,291,5.0,9.0,71,0.00,,,0.00,658.000000,,2013-10-10 21:03:00,
2013-10-10 14:44:00,63.0,54.0,-100.00,NW,322,5.0,10.0,73,0.00,,,0.00,626.000000,,2013-10-10 21:44:00,
2013-10-10 14:54:00,63.0,54.0,-100.00,NW,322,5.0,10.0,73,0.00,,,0.00,626.000000,,2013-10-10 21:54:00,
2013-10-10 15:03:00,63.0,54.0,-100.00,NW,322,5.0,10.0,73,0.00,,,0.00,626.000000,,2013-10-10 22:03:00,
2013-10-10 15:43:00,62.0,54.0,-100.00,NNW,327,6.0,11.0,76,0.00,,,0.00,535.000000,,2013-10-10 22:43:00,
2013-10-10 15:53:00,62.0,54.0,-100.00,NNW,327,6.0,11.0,76,0.00,,,0.00,535.000000,,2013-10-10 22:53:00,
2013-10-10 16:03:00,62.0,54.0,-100.00,NNW,327,6.0,11.0,76,0.00,,,0.00,535.000000,,2013-10-10 23:03:00,
2013-10-10 16:43:00,60.0,55.0,-100.00,NW,326,8.0,14.0,84,0.00,,,0.00,352.000000,,2013-10-10 23:43:00,
2013-10-10 16:52:00,60.0,55.0,-100.00,NW,326,8.0,14.0,84,0.00,,,0.00,352.000000,,2013-10-10 23:52:00,
2013-10-10 17:02:00,60.0,55.0,-100.00,NW,326,8.0,14.0,84,0.00,,,0.00,352.000000,,2013-10-11 00:02:00,
2013-10-10 17:42:00,54.0,53.0,-100.00,NNW,340,11.0,19.0,98,0.00,,,0.00,133.000000,,2013-10-11 00:42:00,
2013-10-10 17:52:00,54.0,53.0,-100.00,NNW,340,11.0,19.0,98,0.00,,,0.00,133.000000,,2013-10-11 00:52:00,
2013-10-10 18:01:00,54.0,53.0,-100.00,NNW,340,11.0,19.0,98,0.00,,,0.00,133.000000,,2013-10-11 01:01:00,
2013-10-10 18:42:00,53.0,53.0,-100.00,NNW,347,10.0,19.0,100,0.00,,,0.00,55.000000,,2013-10-11 01:42:00,
2013-10-10 18:52:00,53.0,53.0,-100.00,NNW,347,10.0,19.0,100,0.00,,,0.00,55.000000,,2013-10-11 01:52:00,
2013-10-10 19:02:00,53.0,53.0,-100.00,NNW,347,10.0,19.0,100,0.00,,,0.00,55.000000,,2013-10-11 02:02:00,
2013-10-10 19:42:00,54.0,52.0,-100.00,North,3,9.0,20.0,94,0.00,,,0.00,9.000000,,2013-10-11 02:42:00,
2013-10-10 19:52:00,54.0,52.0,-100.00,North,3,9.0,20.0,94,0.00,,,0.00,9.000000,,2013-10-11 02:52:00,
2013-10-10 20:02:00,54.0,52.0,-100.00,North,3,9.0,20.0,94,0.00,,,0.00,9.000000,,2013-10-11 03:02:00,
2013-10-10 20:04:00,54.0,50.0,-100.00,NNE,14,3.0,18.0,87,0.00,,,0.00,0.000000,,2013-10-11 03:04:00,
2013-10-10 20:45:00,54.0,50.0,-100.00,NNE,14,3.0,18.0,87,0.00,,,0.00,0.000000,,2013-10-11 03:45:00,
2013-10-10 20:54:00,54.0,50.0,-100.00,NNE,14,3.0,18.0,87,0.00,,,0.00,0.000000,,2013-10-11 03:54:00,
2013-10-10 21:44:00,52.0,47.0,-100.00,NNE,16,1.0,7.0,83,0.00,,,0.00,0.000000,,2013-10-11 04:44:00,
2013-10-10 21:53:00,52.0,47.0,-100.00,NNE,16,1.0,7.0,83,0.00,,,0.00,0.000000,,2013-10-11 04:53:00,
2013-10-10 22:03:00,52.0,47.0,-100.00,NNE,16,1.0,7.0,83,0.00,,,0.00,0.000000,,2013-10-11 05:03:00,
2013-10-10 22:43:00,49.0,46.0,-100.00,ESE,103,0.0,4.0,91,0.00,,,0.00,0.000000,,2013-10-11 05:43:00,
2013-10-10 22:52:00,49.0,46.0,-100.00,ESE,103,0.0,4.0,91,0.00,,,0.00,0.000000,,2013-10-11 05:52:00,
2013-10-10 23:02:00,49.0,46.0,-100.00,ESE,103,0.0,4.0,91,0.00,,,0.00,0.000000,,2013-10-11 06:02:00,
2013-10-10 23:43:00,47.0,47.0,-100.00,SSE,153,0.0,0.0,100,0.00,,,0.00,0.000000,,2013-10-11 06:43:00,
2013-10-10 23:52:00,47.0,47.0,-100.00,SSE,153,0.0,0.0,100,0.00,,,0.00,0.000000,,2013-10-11 06:52:00,